period_start,C,m1,H,J0,J1,J2,J3,J4,J5,JA,JB,JC,JD,JJ,JK,JN,#
2014-04-09 00:00:29,0.25,0.68,0.00,19.68,26.45,27.97,5.94,31.29,1003.93,2042.09,3244.51,3121.67,3385.18,349.61,323.38,6.62,0000 0000 0000 0000 000000
2014-04-09 00:01:29,0.20,0.68,0.00,19.68,26.45,27.99,5.88,31.46,1003.92,2042.08,3244.13,3121.25,3384.64,349.61,323.19,6.63,0000 0000 0000 0000 000000
2014-04-09 00:02:29,0.21,0.68,0.00,19.66,26.45,28.00,5.99,31.58,1003.92,2042.08,3243.61,3121.03,3384.23,349.95,323.52,6.63,0000 0000 0000 0000 000000
2014-04-09 00:03:30,0.18,0.68,0.00,19.65,26.45,28.02,6.00,31.54,1003.92,2042.07,3243.20,3120.49,3383.81,349.29,322.73,6.64,0000 0000 0000 0000 000000
2014-04-09 00:04:30,0.21,0.69,0.00,19.67,26.45,28.01,5.82,31.46,1003.92,2042.06,3242.79,3120.17,3383.31,349.38,322.99,6.64,0000 0000 0000 0000 000000
2014-04-09 00:05:30,0.20,0.69,0.00,19.66,26.45,28.02,5.91,31.54,1003.93,2042.06,3242.27,3119.72,3382.88,349.56,323.16,6.65,0000 0000 0000 0000 000000
2014-04-09 00:06:30,0.22,0.69,0.00,19.65,26.45,28.03,6.14,31.54,1003.92,2042.07,3241.78,3119.27,3382.33,350.48,324.04,6.65,0000 0000 0000 0000 000000
2014-04-09 00:07:31,0.24,0.69,0.00,19.65,26.45,28.03,6.13,31.71,1003.92,2042.05,3241.29,3118.94,3381.94,350.19,323.51,6.66,0000 0000 0000 0000 000000
2014-04-09 00:08:31,0.19,0.69,0.00,19.65,26.45,28.06,5.99,31.63,1003.92,2042.07,3240.91,3118.42,3381.38,349.73,323.33,6.67,0000 0000 0000 0000 000000
2014-04-09 00:09:31,0.26,0.69,0.00,19.64,26.45,28.02,6.04,31.63,1003.92,2042.10,3240.37,3118.16,3381.03,350.12,323.70,6.67,0000 0000 0000 0000 000000
2014-04-09 00:10:32,0.21,0.69,0.00,19.62,26.45,28.05,6.12,31.50,1003.92,2042.10,3239.97,3117.88,3380.44,351.26,324.70,6.68,0000 0000 0000 0000 000000
2014-04-09 00:11:32,0.20,0.69,0.00,19.61,26.45,28.09,5.95,31.54,1003.91,2042.16,3239.40,3117.36,3380.11,349.28,322.95,6.68,0000 0000 0000 0000 000000
2014-04-09 00:12:32,0.27,0.70,0.00,19.58,26.45,28.04,6.25,31.63,1003.90,2042.14,3239.01,3117.06,3379.57,351.17,324.73,6.69,0000 0000 0000 0000 000000
2014-04-09 00:13:33,0.19,0.70,0.00,19.55,26.45,28.02,6.05,31.46,1003.92,2042.16,3238.45,3116.49,3379.17,350.09,323.90,6.70,0000 0000 0000 0000 000000
2014-04-09 00:14:33,0.24,0.70,0.00,19.56,26.45,28.01,5.87,31.50,1003.91,2042.14,3237.99,3116.15,3378.59,350.09,323.38,6.70,0000 0000 0000 0000 000000
2014-04-09 00:15:33,0.22,0.70,0.00,19.58,26.45,28.00,5.88,31.54,1003.88,2042.16,3237.39,3115.64,3378.20,350.04,323.63,6.71,0000 0000 0000 0000 000000
2014-04-09 00:16:33,0.24,0.70,0.00,19.59,26.45,28.05,5.96,31.58,1003.82,2042.17,3236.91,3115.22,3377.67,349.99,323.87,6.71,0000 0000 0000 0000 000000
2014-04-09 00:17:34,0.25,0.70,0.00,19.60,26.45,28.03,6.01,31.38,1003.69,2042.08,3236.35,3114.61,3377.15,350.10,323.60,6.72,0000 0000 0000 0000 000000
2014-04-09 00:18:34,0.23,0.70,0.00,19.63,26.45,27.99,6.12,31.63,1003.54,2042.06,3235.96,3114.21,3376.48,350.03,323.51,6.72,0000 0000 0000 0000 000000
2014-04-09 00:19:34,0.22,0.71,0.00,19.66,26.45,28.00,5.95,31.67,1003.52,2042.06,3235.36,3113.71,3375.97,349.82,323.44,6.73,0000 0000 0000 0000 000000
2014-04-09 00:20:35,0.27,0.71,0.00,19.65,26.45,28.03,6.09,31.58,1003.46,2042.06,3234.78,3113.23,3375.38,349.58,323.05,6.74,0000 0000 0000 0000 000000
2014-04-09 00:21:35,0.28,0.71,0.00,19.65,26.45,28.09,6.11,31.71,1003.45,2042.05,3234.28,3112.63,3374.82,350.52,323.92,6.74,0000 0000 0000 0000 000000
2014-04-09 00:22:35,0.26,0.71,0.00,19.65,26.45,28.08,6.06,31.54,1003.45,2042.06,3233.89,3112.23,3374.26,349.88,323.30,6.75,0000 0000 0000 0000 000000
2014-04-09 00:23:36,0.25,0.71,0.00,19.64,26.45,28.07,5.90,31.42,1003.44,2042.06,3233.35,3111.70,3373.66,349.42,323.06,6.75,0000 0000 0000 0000 000000
2014-04-09 00:24:36,0.26,0.71,0.00,19.66,26.45,28.06,6.02,31.58,1003.44,2042.06,3232.68,3111.25,3373.19,349.69,323.13,6.76,0000 0000 0000 0000 000000
2014-04-09 00:25:36,0.26,0.72,0.00,19.66,26.45,28.07,6.13,31.63,1003.44,2042.05,3232.12,3110.72,3372.58,350.53,323.91,6.77,0000 0000 0000 0000 000000
2014-04-09 00:26:36,0.26,0.72,0.00,19.65,26.45,28.11,5.95,31.46,1003.43,2042.06,3231.53,3110.26,3372.16,349.97,323.71,6.77,0000 0000 0000 0000 000000
2014-04-09 00:27:37,0.27,0.72,0.00,19.63,26.45,28.11,6.22,31.58,1003.43,2042.15,3231.14,3109.86,3371.55,350.73,324.46,6.78,0000 0000 0000 0000 000000
2014-04-09 00:28:37,0.30,0.72,0.00,19.63,26.45,28.13,5.96,31.54,1003.44,2042.19,3230.54,3109.31,3371.09,349.79,323.46,6.78,0000 0000 0000 0000 000000
2014-04-09 00:29:37,0.27,0.72,0.00,19.62,26.45,28.12,6.03,31.46,1003.44,2042.14,3230.13,3108.88,3370.47,349.36,322.87,6.79,0000 0000 0000 0000 000000
2014-04-09 00:30:38,0.23,0.72,0.00,19.62,26.45,28.10,5.99,31.58,1003.43,2042.12,3229.56,3108.34,3370.06,350.05,323.72,6.80,0000 0000 0000 0000 000000
2014-04-09 00:31:38,0.20,0.72,0.00,19.62,26.45,28.13,6.07,31.46,1003.43,2042.05,3229.15,3108.00,3369.47,350.08,323.60,6.80,0000 0000 0000 0000 000000
2014-04-09 00:32:38,0.20,0.73,0.00,19.63,26.45,28.12,6.06,31.67,1003.43,2042.03,3228.53,3107.41,3369.13,349.88,323.66,6.81,0000 0000 0000 0000 000000
2014-04-09 00:33:38,0.22,0.73,0.00,19.64,26.45,28.17,6.08,31.50,1003.44,2042.02,3228.19,3107.14,3368.60,350.39,323.50,6.81,0000 0000 0000 0000 000000
2014-04-09 00:34:39,0.16,0.73,0.00,19.64,26.45,28.17,5.86,31.46,1003.44,2042.04,3227.88,3106.93,3368.22,349.27,322.78,6.82,0000 0000 0000 0000 000000
2014-04-09 00:35:39,0.19,0.73,0.00,19.64,26.45,28.18,6.07,31.38,1003.44,2042.11,3227.39,3106.46,3368.03,350.19,323.61,6.82,0000 0000 0000 0000 000000
2014-04-09 00:36:39,0.22,0.73,0.00,19.64,26.45,28.19,5.96,31.50,1003.43,2042.06,3227.11,3106.17,3367.53,350.19,323.61,6.83,0000 0000 0000 0000 000000
2014-04-09 00:37:40,0.14,0.73,0.00,19.64,26.45,28.19,6.06,31.29,1003.43,2042.07,3226.63,3106.00,3367.19,349.69,323.08,6.84,0000 0000 0000 0000 000000
2014-04-09 00:38:40,0.16,0.73,0.00,19.63,26.45,28.13,6.16,31.46,1003.43,2042.06,3226.22,3105.50,3366.86,350.96,324.33,6.84,0000 0000 0000 0000 000000
2014-04-09 00:39:40,0.21,0.73,0.00,19.59,26.45,28.11,6.02,31.46,1003.43,2042.07,3225.81,3105.18,3366.34,349.81,323.32,6.85,0000 0000 0000 0000 000000
2014-04-09 00:40:41,0.22,0.73,0.00,19.55,26.45,28.07,6.02,31.38,1003.43,2042.09,3225.31,3105.01,3366.10,349.44,323.01,6.85,0000 0000 0000 0000 000000
2014-04-09 00:41:41,0.17,0.74,0.00,19.56,26.45,28.08,5.88,31.38,1003.43,2042.13,3224.96,3104.61,3365.67,349.60,323.15,6.86,0000 0000 0000 0000 000000
2014-04-09 00:42:41,0.22,0.74,0.00,19.57,26.45,28.12,5.98,31.33,1003.43,2042.14,3224.41,3104.22,3365.24,350.18,323.40,6.87,0000 0000 0000 0000 000000
2014-04-09 00:43:42,0.23,0.74,0.00,19.57,26.45,28.12,6.05,31.38,1003.42,2042.17,3224.14,3104.06,3365.01,350.39,324.10,6.87,0000 0000 0000 0000 000000
2014-04-09 00:44:42,0.12,0.74,0.00,19.59,26.45,28.13,6.03,31.25,1003.40,2042.12,3223.73,3103.60,3364.49,350.34,323.79,6.88,0000 0000 0000 0000 000000
2014-04-09 00:45:42,0.16,0.74,0.00,19.61,26.45,28.15,6.05,31.54,1003.33,2042.07,3223.26,3103.22,3364.16,349.32,322.80,6.88,0000 0000 0000 0000 000000
2014-04-09 00:46:42,0.19,0.74,0.00,19.62,26.45,28.14,5.99,31.42,1003.34,2042.10,3222.86,3103.04,3363.78,349.32,322.80,6.89,0000 0000 0000 0000 000000
2014-04-09 00:47:43,0.19,0.74,0.00,19.62,26.45,28.14,6.08,31.13,1003.38,2042.09,3222.33,3102.55,3363.29,350.56,324.01,6.89,0000 0000 0000 0000 000000
2014-04-09 00:48:43,0.22,0.75,0.00,19.62,26.45,28.18,6.21,31.50,1003.25,2042.14,3222.10,3102.20,3363.08,350.70,323.74,6.90,0000 0000 0000 0000 000000
2014-04-09 00:49:43,0.20,0.75,0.00,19.60,26.45,28.20,5.93,31.54,1003.18,2042.22,3221.72,3102.05,3362.65,349.83,323.44,6.91,0000 0000 0000 0000 000000
2014-04-09 00:50:44,0.18,0.75,0.00,19.62,26.45,28.19,5.88,31.42,1003.29,2042.22,3221.27,3101.75,3362.23,350.05,323.39,6.91,0000 0000 0000 0000 000000
2014-04-09 00:51:44,0.19,0.75,0.00,19.62,26.45,28.24,5.92,31.42,1003.20,2042.25,3220.88,3101.29,3362.04,349.46,322.59,6.92,0000 0000 0000 0000 000000
2014-04-09 00:52:44,0.19,0.75,0.00,19.62,26.45,28.24,6.21,31.33,1003.25,2042.16,3220.36,3101.08,3361.49,350.79,324.13,6.92,0000 0000 0000 0000 000000
2014-04-09 00:53:44,0.14,0.75,0.00,19.63,26.45,28.26,5.89,31.33,1003.34,2042.10,3220.05,3100.67,3361.17,349.58,323.02,6.93,0000 0000 0000 0000 000000
2014-04-09 00:54:45,0.17,0.75,0.00,19.62,26.45,28.26,6.07,31.46,1003.27,2042.12,3219.51,3100.25,3360.86,349.68,323.10,6.94,0000 0000 0000 0000 000000
2014-04-09 00:55:45,0.24,0.75,0.00,19.64,26.45,28.34,5.91,31.33,1003.07,2042.15,3219.14,3100.06,3360.33,349.55,322.91,6.94,0000 0000 0000 0000 000000
2014-04-09 00:56:45,0.14,0.75,0.00,19.64,26.45,28.31,6.01,31.38,1003.07,2042.08,3218.58,3099.59,3360.08,350.30,323.60,6.95,0000 0000 0000 0000 000000
2014-04-09 00:57:46,0.19,0.75,0.00,19.63,26.45,28.27,6.08,31.50,1002.99,2042.07,3218.21,3099.22,3359.54,349.99,323.33,6.95,0000 0000 0000 0000 000000
2014-04-09 00:58:46,0.18,0.76,0.00,19.62,26.45,28.32,5.96,31.42,1002.97,2042.09,3217.79,3099.07,3359.19,349.28,322.63,6.96,0000 0000 0000 0000 000000
2014-04-09 00:59:46,0.16,0.76,0.00,19.62,26.44,28.30,6.10,31.42,1002.97,2042.08,3217.30,3098.60,3358.79,349.91,323.05,6.97,0000 0000 0000 0000 000000
2014-04-09 01:00:46,0.25,0.76,0.00,19.63,26.45,28.28,6.07,31.50,1002.96,2042.11,3216.91,3098.22,3358.30,349.76,323.21,6.97,0000 0000 0000 0000 000000
2014-04-09 01:01:47,0.21,0.76,0.00,19.64,26.44,28.36,6.08,31.46,1002.96,2042.08,3216.37,3097.97,3358.06,348.74,322.50,6.98,0000 0000 0000 0000 000000
2014-04-09 01:02:47,0.16,0.76,0.00,19.62,26.44,28.38,6.04,31.33,1002.95,2042.10,3216.07,3097.55,3357.58,349.94,323.30,6.98,0000 0000 0000 0000 000000
2014-04-09 01:03:47,0.21,0.76,0.00,19.62,26.44,28.44,5.92,31.29,1002.94,2042.20,3215.58,3097.23,3357.22,349.22,322.73,6.99,0000 0000 0000 0000 000000
2014-04-09 01:04:47,0.24,0.76,0.00,19.61,26.44,28.36,5.94,31.46,1002.94,2042.32,3215.21,3097.07,3357.04,349.64,323.08,6.99,0000 0000 0000 0000 000000
2014-04-09 01:05:48,0.25,0.76,0.00,19.59,26.44,28.35,6.08,31.46,1002.94,2042.42,3214.85,3096.77,3356.56,351.45,324.74,7.00,0000 0000 0000 0000 000000
2014-04-09 01:06:48,0.30,0.77,0.00,19.56,26.44,28.27,6.04,31.29,1002.94,2042.45,3214.38,3096.33,3356.20,349.63,323.18,7.01,0000 0000 0000 0000 000000
2014-04-09 01:07:48,0.16,0.77,0.00,19.56,26.44,28.25,5.87,31.54,1002.94,2042.34,3214.04,3096.11,3355.87,349.00,322.22,7.01,0000 0000 0000 0000 000000
2014-04-09 01:08:48,0.08,0.77,0.00,19.57,26.44,28.27,6.13,31.46,1002.93,2042.28,3213.47,3095.80,3355.37,349.83,323.13,7.02,0000 0000 0000 0000 000000
2014-04-09 01:09:49,0.15,0.77,0.00,19.57,26.44,28.26,6.17,31.46,1002.94,2042.26,3213.14,3095.32,3355.12,349.76,323.15,7.02,0000 0000 0000 0000 000000
2014-04-09 01:10:49,0.18,0.77,0.00,19.59,26.44,28.27,6.13,31.50,1002.94,2042.33,3212.72,3095.11,3354.83,350.43,323.73,7.03,0000 0000 0000 0000 000000
2014-04-09 01:11:49,0.23,0.77,0.00,19.59,26.44,28.30,5.83,31.50,1002.92,2042.27,3212.26,3094.90,3354.33,349.67,323.02,7.04,0000 0000 0000 0000 000000
2014-04-09 01:12:50,0.14,0.77,0.00,19.59,26.43,28.35,5.99,31.25,1002.90,2042.30,3212.00,3094.41,3354.09,350.71,324.22,7.04,0000 0000 0000 0000 000000
2014-04-09 01:13:50,0.17,0.77,0.00,19.59,26.43,28.30,5.90,31.46,1002.79,2042.35,3211.50,3094.15,3353.68,349.87,323.15,7.05,0000 0000 0000 0000 000000
2014-04-09 01:14:50,0.22,0.77,0.00,19.59,26.44,28.36,6.22,31.58,1002.86,2042.26,3211.08,3093.88,3353.25,350.88,324.11,7.05,0000 0000 0000 0000 000000
2014-04-09 01:15:50,0.13,0.77,0.00,19.60,26.43,28.35,6.17,31.71,1002.80,2042.23,3210.62,3093.36,3353.00,350.58,323.46,7.06,0000 0000 0000 0000 000000
2014-04-09 01:16:51,0.22,0.78,0.00,19.61,26.43,28.34,5.94,31.50,1002.83,2042.24,3210.26,3093.13,3352.50,350.25,323.38,7.06,0000 0000 0000 0000 000000
2014-04-09 01:17:51,0.14,0.78,0.00,19.63,26.43,28.40,5.90,31.50,1002.82,2042.26,3209.99,3093.03,3352.18,349.48,322.77,7.07,0000 0000 0000 0000 000000
2014-04-09 01:18:51,0.11,0.78,0.00,19.64,26.43,28.50,6.17,31.50,1002.73,2042.31,3209.48,3092.68,3352.00,350.32,323.50,7.08,0000 0000 0000 0000 000000
2014-04-09 01:19:51,0.23,0.78,0.00,19.62,26.42,28.50,5.91,31.46,1002.71,2042.33,3209.15,3092.25,3351.49,349.15,322.31,7.08,0000 0000 0000 0000 000000
2014-04-09 01:20:52,0.23,0.78,0.00,19.61,26.43,28.53,6.13,31.54,1002.67,2042.33,3208.77,3092.09,3351.17,350.10,323.13,7.09,0000 0000 0000 0000 000000
2014-04-09 01:21:52,0.13,0.78,0.00,19.61,26.42,28.57,6.06,31.42,1002.65,2042.25,3208.29,3091.87,3350.92,349.62,323.22,7.09,0000 0000 0000 0000 000000
2014-04-09 01:22:52,0.09,0.78,0.00,19.63,26.42,28.52,5.92,31.50,1002.69,2042.17,3208.03,3091.39,3350.42,349.84,323.01,7.10,0000 0000 0000 0000 000000
2014-04-09 01:23:53,0.14,0.78,0.00,19.63,26.42,28.55,6.02,31.46,1002.81,2042.15,3207.55,3091.14,3350.15,349.04,322.73,7.11,0000 0000 0000 0000 000000
2014-04-09 01:24:53,0.17,0.78,0.00,19.62,26.42,28.54,5.94,31.46,1002.84,2042.22,3207.19,3091.00,3349.87,349.61,322.65,7.11,0000 0000 0000 0000 000000
2014-04-09 01:25:53,0.13,0.78,0.00,19.62,26.42,28.54,5.99,31.42,1002.87,2042.21,3206.68,3090.53,3349.34,350.49,323.67,7.12,0000 0000 0000 0000 000000
2014-04-09 01:26:53,0.23,0.79,0.00,19.62,26.42,28.48,5.93,31.29,1002.83,2042.19,3206.25,3090.19,3349.11,349.56,322.84,7.12,0000 0000 0000 0000 000000
2014-04-09 01:27:54,0.18,0.79,0.00,19.62,26.42,28.46,6.11,31.46,1002.88,2042.18,3205.95,3090.06,3348.86,349.55,322.87,7.13,0000 0000 0000 0000 000000
2014-04-09 01:28:54,0.11,0.79,0.00,19.61,26.42,28.47,6.18,31.46,1002.90,2042.16,3205.42,3089.79,3348.35,350.47,323.73,7.14,0000 0000 0000 0000 000000
2014-04-09 01:29:54,0.17,0.79,0.00,19.60,26.42,28.53,6.15,31.46,1002.89,2042.14,3205.13,3089.34,3348.11,349.88,323.19,7.14,0000 0000 0000 0000 000000
2014-04-09 01:30:54,0.14,0.79,0.00,19.59,26.42,28.50,6.08,31.58,1002.86,2042.13,3204.60,3089.11,3347.78,350.19,323.49,7.15,0000 0000 0000 0000 000000
2014-04-09 01:31:55,0.18,0.79,0.00,19.55,26.42,28.40,5.95,31.46,1002.74,2042.09,3204.21,3088.88,3347.33,349.33,322.69,7.15,0000 0000 0000 0000 000000
2014-04-09 01:32:55,0.13,0.79,0.00,19.55,26.42,28.31,6.08,31.42,1002.56,2042.08,3203.94,3088.42,3347.12,349.88,323.14,7.16,0000 0000 0000 0000 000000
2014-04-09 01:33:55,0.18,0.79,0.00,19.57,26.42,28.38,5.87,31.42,1002.58,2042.13,3203.43,3088.16,3346.92,349.53,322.80,7.16,0000 0000 0000 0000 000000
2014-04-09 01:34:55,0.20,0.79,0.00,19.57,26.42,28.35,5.93,31.38,1002.49,2042.19,3203.11,3088.01,3346.42,349.88,323.10,7.17,0000 0000 0000 0000 000000
2014-04-09 01:35:56,0.19,0.79,0.00,19.57,26.42,28.36,6.13,31.50,1002.48,2042.31,3202.59,3087.61,3346.15,350.58,323.75,7.18,0000 0000 0000 0000 000000
2014-04-09 01:36:56,0.34,0.80,0.00,19.57,26.42,28.33,5.90,31.38,1002.46,2042.47,3202.21,3087.24,3345.95,349.24,322.69,7.18,0000 0000 0000 0000 000000
2014-04-09 01:37:56,0.25,0.80,0.00,19.57,26.42,28.34,6.13,31.33,1002.46,2042.43,3201.89,3087.09,3345.41,350.27,323.47,7.19,0000 0000 0000 0000 000000
2014-04-09 01:38:56,0.10,0.80,0.00,19.58,26.42,28.32,6.08,31.38,1002.46,2042.32,3201.38,3086.86,3345.14,350.48,323.58,7.19,0000 0000 0000 0000 000000
2014-04-09 01:39:57,0.09,0.80,0.00,19.59,26.42,28.30,5.96,31.42,1002.46,2042.34,3201.12,3086.37,3344.84,349.35,322.34,7.20,0000 0000 0000 0000 000000
2014-04-09 01:40:57,0.21,0.80,0.00,19.59,26.42,28.33,6.14,31.38,1002.46,2042.43,3200.75,3086.13,3344.33,350.53,323.58,7.21,0000 0000 0000 0000 000000
2014-04-09 01:41:57,0.23,0.80,0.00,19.61,26.42,28.29,5.89,31.25,1002.46,2042.41,3200.28,3085.98,3344.12,348.54,321.81,7.21,0000 0000 0000 0000 000000
2014-04-09 01:42:57,0.10,0.80,0.00,19.62,26.42,28.29,6.00,31.46,1002.46,2042.36,3199.94,3085.50,3343.77,350.10,323.23,7.22,0000 0000 0000 0000 000000
2014-04-09 01:43:58,0.21,0.80,0.00,19.62,26.42,28.33,6.02,31.33,1002.46,2042.28,3199.42,3085.18,3343.30,349.64,322.93,7.22,0000 0000 0000 0000 000000
2014-04-09 01:44:58,0.11,0.80,0.00,19.62,26.42,28.32,5.97,31.46,1002.45,2042.29,3199.11,3085.03,3343.10,349.40,322.59,7.23,0000 0000 0000 0000 000000
2014-04-09 01:45:58,0.11,0.81,0.00,19.61,26.42,28.33,5.98,31.38,1002.46,2042.26,3198.56,3084.55,3342.64,349.71,322.92,7.23,0000 0000 0000 0000 000000
2014-04-09 01:46:58,0.23,0.81,0.00,19.60,26.42,28.37,5.93,31.42,1002.46,2042.26,3198.19,3084.19,3342.24,349.49,322.57,7.24,0000 0000 0000 0000 000000
2014-04-09 01:47:58,0.14,0.81,0.00,19.60,26.42,28.30,6.08,31.42,1002.38,2042.22,3197.95,3084.04,3342.04,349.71,322.71,7.25,0000 0000 0000 0000 000000
2014-04-09 01:48:58,0.12,0.81,0.00,19.61,26.42,28.31,6.23,31.58,1002.41,2042.28,3197.42,3083.71,3341.55,350.26,323.10,7.25,0000 0000 0000 0000 000000
2014-04-09 01:49:59,0.25,0.81,0.00,19.61,26.42,28.29,6.06,31.42,1002.41,2042.30,3197.12,3083.27,3341.20,350.29,323.41,7.26,0000 0000 0000 0000 000000
2014-04-09 01:50:59,0.16,0.81,0.00,19.60,26.42,28.36,5.94,31.42,1002.33,2042.37,3196.61,3083.08,3340.99,349.03,322.24,7.26,0000 0000 0000 0000 000000
2014-04-09 01:51:59,0.22,0.81,0.00,19.58,26.42,28.33,5.96,31.54,1002.25,2042.30,3196.22,3082.77,3340.47,349.84,322.97,7.27,0000 0000 0000 0000 000000
2014-04-09 01:52:59,0.15,0.81,0.00,19.59,26.42,28.32,6.13,31.46,1002.09,2042.26,3195.98,3082.31,3340.17,350.39,323.42,7.28,0000 0000 0000 0000 000000
2014-04-09 01:54:00,0.16,0.81,0.00,19.59,26.42,28.34,6.07,31.46,1002.06,2042.30,3195.45,3082.11,3340.00,351.56,324.48,7.28,0000 0000 0000 0000 000000
2014-04-09 01:55:00,0.20,0.82,0.00,19.61,26.42,28.29,6.19,31.46,1002.01,2042.41,3195.11,3081.97,3339.51,351.00,323.94,7.29,0000 0000 0000 0000 000000
2014-04-09 01:56:00,0.18,0.82,0.00,19.62,26.42,28.34,6.21,31.46,1001.99,2042.33,3194.57,3081.48,3339.18,350.78,323.71,7.29,0000 0000 0000 0000 000000
2014-04-09 01:57:00,0.19,0.82,0.00,19.62,26.42,28.39,6.02,31.46,1001.98,2042.28,3194.18,3081.17,3338.88,349.96,322.95,7.30,0000 0000 0000 0000 000000
2014-04-09 01:58:01,0.10,0.82,0.00,19.61,26.42,28.32,6.16,31.63,1001.97,2042.32,3193.75,3081.05,3338.38,349.83,322.98,7.31,0000 0000 0000 0000 000000
2014-04-09 01:59:01,0.22,0.82,0.00,19.61,26.42,28.38,6.02,31.42,1001.97,2042.33,3193.27,3080.66,3338.13,349.81,322.83,7.31,0000 0000 0000 0000 000000
2014-04-09 02:00:01,0.18,0.82,0.00,19.57,26.42,28.32,6.06,31.46,1001.97,2042.35,3192.98,3080.24,3337.79,349.99,323.25,7.32,0000 0000 0000 0000 000000
2014-04-09 02:01:01,0.20,0.82,0.00,19.55,26.42,28.27,6.23,31.54,1001.97,2042.49,3192.44,3080.08,3337.33,350.48,323.56,7.32,0000 0000 0000 0000 000000
2014-04-09 02:02:02,0.29,0.82,0.00,19.56,26.42,28.29,5.94,31.46,1001.96,2042.64,3192.14,3079.94,3337.11,351.24,324.46,7.33,0000 0000 0000 0000 000000
2014-04-09 02:03:02,0.24,0.82,0.00,19.55,26.42,28.32,6.10,31.29,1001.96,2042.68,3191.78,3079.46,3336.92,350.63,323.64,7.33,0000 0000 0000 0000 000000
2014-04-09 02:04:02,0.20,0.83,0.00,19.56,26.42,28.34,6.05,31.50,1001.96,2042.66,3191.35,3079.17,3336.43,350.39,323.42,7.34,0000 0000 0000 0000 000000
2014-04-09 02:05:03,0.17,0.83,0.00,19.56,26.42,28.39,6.00,31.46,1001.95,2042.57,3191.00,3079.01,3336.15,349.80,323.31,7.35,0000 0000 0000 0000 000000
2014-04-09 02:06:03,0.04,0.83,0.00,19.56,26.42,28.39,6.02,31.50,1001.82,2042.53,3190.54,3078.68,3335.85,349.96,323.01,7.35,0000 0000 0000 0000 000000
2014-04-09 02:07:03,0.21,0.83,0.00,19.58,26.42,28.36,5.91,31.33,1001.87,2042.55,3190.20,3078.25,3335.37,349.81,322.60,7.36,0000 0000 0000 0000 000000
2014-04-09 02:08:03,0.19,0.83,0.00,19.59,26.42,28.34,5.94,31.50,1001.73,2042.57,3189.80,3078.08,3335.13,350.35,322.99,7.36,0000 0000 0000 0000 000000
2014-04-09 02:09:04,0.12,0.83,0.00,19.59,26.42,28.39,6.02,31.29,1001.68,2042.56,3189.32,3077.84,3334.88,349.80,322.81,7.37,0000 0000 0000 0000 000000
2014-04-09 02:10:04,0.18,0.83,0.00,19.57,26.42,28.36,6.14,31.42,1001.57,2042.48,3189.03,3077.36,3334.38,349.66,322.60,7.38,0000 0000 0000 0000 000000
2014-04-09 02:11:04,0.13,0.83,0.00,19.58,26.42,28.40,6.08,31.50,1001.54,2042.45,3188.48,3077.12,3334.13,351.24,324.03,7.38,0000 0000 0000 0000 000000
2014-04-09 02:12:05,0.18,0.83,0.00,19.60,26.42,28.36,6.08,31.42,1001.54,2042.42,3188.16,3076.93,3333.83,348.80,321.76,7.39,0000 0000 0000 0000 000000
2014-04-09 02:13:05,0.06,0.83,0.00,19.61,26.42,28.37,5.82,31.29,1001.50,2042.53,3187.77,3076.53,3333.37,348.25,321.23,7.39,0000 0000 0000 0000 000000
2014-04-09 02:14:05,0.37,0.84,0.00,19.62,26.42,28.42,6.19,31.42,1001.53,2042.63,3187.33,3076.21,3333.13,350.65,323.04,7.40,0000 0000 0000 0000 000000
2014-04-09 02:15:05,0.21,0.84,0.00,19.62,26.42,28.46,6.13,31.46,1001.50,2042.65,3187.07,3076.07,3332.97,350.35,323.08,7.40,0000 0000 0000 0000 000000
2014-04-09 02:16:06,0.06,0.84,0.00,19.62,26.42,28.48,5.91,31.42,1001.49,2042.74,3186.55,3075.78,3332.47,349.51,322.58,7.41,0000 0000 0000 0000 000000
2014-04-09 02:17:06,0.36,0.84,0.00,19.61,26.42,28.43,5.98,31.42,1001.50,2042.77,3186.13,3075.33,3332.16,350.12,322.63,7.42,0000 0000 0000 0000 000000
2014-04-09 02:18:06,0.17,0.84,0.00,19.62,26.42,28.48,5.77,31.38,1001.53,2042.71,3185.62,3075.11,3331.82,348.60,321.67,7.42,0000 0000 0000 0000 000000
2014-04-09 02:19:06,0.13,0.84,0.00,19.62,26.42,28.56,5.96,31.25,1001.50,2042.54,3185.24,3074.84,3331.33,349.51,322.39,7.43,0000 0000 0000 0000 000000
2014-04-09 02:20:06,0.04,0.84,0.00,19.61,26.42,28.55,5.87,31.38,1001.49,2042.47,3184.89,3074.37,3331.11,349.44,322.57,7.43,0000 0000 0000 0000 000000
2014-04-09 02:21:07,0.15,0.84,0.00,19.60,26.42,28.55,6.01,31.42,1001.49,2042.43,3184.38,3074.14,3330.71,349.78,322.78,7.44,0000 0000 0000 0000 000000
2014-04-09 02:22:07,0.11,0.84,0.00,19.58,26.42,28.59,6.15,31.38,1001.52,2042.43,3184.11,3074.00,3330.28,350.44,323.20,7.45,0000 0000 0000 0000 000000
2014-04-09 02:23:07,0.13,0.84,0.00,19.56,26.42,28.58,6.08,31.38,1001.53,2042.31,3183.59,3073.57,3330.09,349.63,322.77,7.45,0000 0000 0000 0000 000000
2014-04-09 02:24:07,0.11,0.84,0.00,19.57,26.42,28.56,6.16,31.33,1001.50,2042.19,3183.19,3073.22,3329.71,350.28,323.29,7.46,0000 0000 0000 0000 000000
2014-04-09 02:25:07,0.08,0.85,0.00,19.58,26.42,28.50,6.10,31.29,1001.55,2042.15,3182.66,3073.05,3329.28,349.90,322.51,7.46,0000 0000 0000 0000 000000
2014-04-09 02:26:07,0.17,0.85,0.00,19.59,26.42,28.51,6.25,31.42,1001.50,2042.13,3182.26,3072.64,3329.08,350.30,323.14,7.47,0000 0000 0000 0000 000000
2014-04-09 02:27:07,0.19,0.85,0.00,19.59,26.42,28.53,6.06,31.42,1001.48,2042.24,3182.00,3072.23,3328.82,349.61,322.50,7.47,0000 0000 0000 0000 000000
2014-04-09 02:28:08,0.24,0.85,0.00,19.60,26.42,28.46,6.04,31.42,1001.49,2042.23,3181.46,3072.08,3328.32,350.25,322.81,7.48,0000 0000 0000 0000 000000
2014-04-09 02:29:08,0.16,0.85,0.00,19.58,26.42,28.45,6.04,31.54,1001.49,2042.37,3181.15,3071.93,3328.11,350.33,323.29,7.49,0000 0000 0000 0000 000000
2014-04-09 02:30:08,0.24,0.85,0.00,19.57,26.42,28.37,5.99,31.46,1001.48,2042.47,3180.67,3071.46,3327.93,349.86,322.88,7.49,0000 0000 0000 0000 000000
2014-04-09 02:31:08,0.28,0.85,0.00,19.59,26.42,28.36,6.02,31.42,1001.48,2042.30,3180.25,3071.16,3327.42,349.21,322.31,7.50,0000 0000 0000 0000 000000
2014-04-09 02:32:09,0.01,0.85,0.00,19.59,26.42,28.38,6.02,31.50,1001.48,2042.17,3179.91,3071.05,3327.15,350.38,323.46,7.50,0000 0000 0000 0000 000000
2014-04-09 02:33:09,0.00,0.85,0.00,19.61,26.42,28.40,6.05,31.50,1001.48,2042.29,3179.37,3070.86,3326.99,350.52,323.32,7.51,0000 0000 0000 0000 000000
2014-04-09 02:34:09,0.24,0.85,0.00,19.61,26.41,28.45,5.82,31.46,1001.48,2042.38,3179.08,3070.42,3326.51,349.39,322.29,7.52,0000 0000 0000 0000 000000
2014-04-09 02:35:10,0.30,0.86,0.00,19.60,26.42,28.45,6.16,31.50,1001.42,2042.48,3178.58,3070.15,3326.18,350.49,323.29,7.52,0000 0000 0000 0000 000000
2014-04-09 02:36:10,0.28,0.86,0.00,19.60,26.42,28.43,5.99,31.46,1001.25,2042.55,3178.19,3069.97,3325.86,349.63,322.43,7.53,0000 0000 0000 0000 000000
2014-04-09 02:37:10,0.17,0.86,0.00,19.61,26.42,28.41,5.97,31.54,1001.05,2042.59,3177.85,3069.53,3325.35,349.76,322.48,7.53,0000 0000 0000 0000 000000